User: anonymous   Login
Location: Julian California
(33.0790°N, 116.6010°W)
Time: 05:20:11
(UTC-07:00)
Language:

IGS 5A - Orbit

View from above orbital plane
View from above orbital plane
View from above satellite
View from above satellite

Ground track
Ground track

The orbit data is extracted from the following two-line orbital elements,

1 36104U 09066A   19112.87953311 0.00000000  00000-0  00000-0 0    09
2 36104  97.6472 182.6224 0005145  88.6898 271.3852 14.93681758    08
Epoch (UTC): 22 April 2019 21:06:31
Eccentricity: 0.0005145
inclination: 97.6472°
perigee height: 583 km
apogee height: 590 km
right ascension of ascending node: 182.6224°
argument of perigee: 88.6898°
revolutions per day: 14.93681758
mean anomaly at epoch: 271.3852°
orbit number at epoch: 0

The dashed part of the orbit path shows where the satellite is in the earth's shadow,  

DLR